Weather History for KFRI - November, 2012

Change the Weather History Date:

Sunday, November 4, 2012

  Actual Average (KMHK) Record (KMHK)
Temperature  
Mean Temperature 50 °F 48 °F  
Max Temperature 69 °F 61 °F 77 °F (2008)
Min Temperature 30 °F 35 °F 23 °F (2011)
Degree Days  
Heating Degree Days 16 17  
Month to date heating degree days 67  
Since 1 July heating degree days 466  
Cooling Degree Days 0 0  
Month to date cooling degree days 0  
Year to date cooling degree days 1361  
Moisture  
Dew Point 35 °F    
Average Humidity 78    
Maximum Humidity 100    
Minimum Humidity 26    
Precipitation  
Precipitation 0.00 in 0.08 in 0.20 in (2003)
Month to date precipitation 0.32  
Year to date precipitation 30.25  
Sea Level Pressure  
Sea Level Pressure 30.17 in    
Wind  
Wind Speed 2 mph (SW)    
Max Wind Speed 18 mph    
Max Gust Speed 25 mph    
Visibility 5 miles    
Events Rain    
T = Trace of Precipitation, MM = Missing Value Source: NWS Daily Summary

Daily Weather History Graph

Daily Weather History Graph

Search for Another Location

Airport or City:

Trip Planner

Search our weather history database for the weather conditions in past years. The results will help you decide how hot, cold, wet, or windy it might be!

Date:

Astronomy

Nov. 04, 2012 Rise Set
Actual Time 6:58 AM CST 5:22 PM CST
Civil Twilight 6:30 AM CST 5:50 PM CST
Nautical Twilight 5:58 AM CST 6:21 PM CST
Astronomical Twilight 5:27 AM CST 6:53 PM CST
Moon 10:01 PM CST (11/4) 11:42 AM CST (11/4)
Length of Visible Light 11h 19m
Length of Day
10h 23m
Waning Gibbous, 72% of the Moon is Illuminated
Nov 4
Waning Gibbous
Nov 6
Last Quarter
Nov 13
New
Nov 20
First Quarter
Nov 28
Full

Hourly Weather History & Observations

Time (CST) Temp. Windchill Dew Point Humidity Pressure Visibility Wind Dir Wind Speed Gust Speed Precip Events Conditions
12:55 AM 36.1 °F - 35.1 °F 96% 30.22 in 3.0 mi Calm Calm - N/A   Clear
1:55 AM 34.2 °F 31.2 °F 33.8 °F 99% 30.22 in 3.0 mi North 3.5 mph - N/A   Clear
1:06 AM 35.6 °F 32.8 °F 35.6 °F 100% 30.22 in 3.0 mi North 3.5 mph - N/A   Clear
1:19 AM 35.6 °F - 35.6 °F 100% 30.22 in 2.5 mi Calm Calm - N/A   Clear
1:21 AM 35.6 °F - 33.8 °F 93% 30.22 in 3.0 mi Calm Calm - N/A   Clear
1:55 AM 32.4 °F - 32.2 °F 99% 30.22 in 4.0 mi Calm Calm - N/A   Clear
2:55 AM 33.3 °F - 32.9 °F 99% 30.21 in 8.0 mi Calm Calm - N/A   Clear
3:25 AM 30.2 °F - 30.2 °F 100% 30.21 in 2.5 mi Calm Calm - N/A   Clear
3:28 AM 30.2 °F - 30.2 °F 100% 30.21 in 2.0 mi Calm Calm - N/A   Clear
3:32 AM 32.0 °F - 32.0 °F 100% 30.21 in 1.8 mi Calm Calm - N/A   Clear
3:38 AM 33.8 °F - 32.0 °F 93% 30.21 in 2.0 mi Calm Calm - N/A   Clear
3:52 AM 32.0 °F - 32.0 °F 100% 30.21 in 2.5 mi Calm Calm - N/A   Clear
3:55 AM 31.6 °F - 31.5 °F 99% 30.21 in 2.5 mi Calm Calm - N/A   Clear
3:57 AM 32.0 °F - 32.0 °F 100% 30.21 in 3.0 mi Calm Calm - N/A   Clear
4:55 AM 30.0 °F - 30.0 °F 100% 30.22 in 3.0 mi Calm Calm - N/A   Overcast
4:58 AM 30.2 °F - 30.2 °F 100% 30.22 in 2.5 mi Calm Calm - N/A   Overcast
5:05 AM 32.0 °F - 32.0 °F 100% 30.22 in 3.0 mi Calm Calm - N/A   Overcast
5:14 AM 32.0 °F - 32.0 °F 100% 30.22 in 2.5 mi Calm Calm - N/A   Overcast
5:20 AM 32.0 °F - 32.0 °F 100% 30.22 in 3.0 mi Calm Calm - N/A   Mostly Cloudy
5:55 AM 30.9 °F - 30.9 °F 100% 30.22 in 3.0 mi Calm Calm - N/A   Mostly Cloudy
6:30 AM 32.0 °F - 32.0 °F 100% 30.22 in 2.5 mi Calm Calm - N/A   Mostly Cloudy
6:42 AM 32.0 °F - 32.0 °F 100% 30.22 in 3.0 mi Calm Calm - N/A   Mostly Cloudy
6:55 AM 31.8 °F - 31.8 °F 100% 30.22 in 4.0 mi Calm Calm - N/A   Mostly Cloudy
7:02 AM 32.0 °F - 32.0 °F 100% 30.22 in 2.5 mi Calm Calm - N/A   Mostly Cloudy
7:04 AM 32.0 °F - 32.0 °F 100% 30.22 in 2.0 mi Calm Calm - N/A   Mostly Cloudy
7:06 AM 32.0 °F - 32.0 °F 100% 30.22 in 1.8 mi Calm Calm - N/A   Mostly Cloudy
7:08 AM 32.0 °F - 32.0 °F 100% 30.22 in 1.5 mi Calm Calm - N/A   Mostly Cloudy
7:13 AM 32.0 °F - 32.0 °F 100% 30.22 in 1.8 mi Calm Calm - N/A   Mostly Cloudy
7:20 AM 32.0 °F - 32.0 °F 100% 30.23 in 2.0 mi Calm Calm - N/A   Mostly Cloudy
7:24 AM 32.0 °F - 32.0 °F 100% 30.23 in 2.5 mi Calm Calm - N/A   Mostly Cloudy
7:27 AM 32.0 °F - 32.0 °F 100% 30.23 in 3.0 mi Calm Calm - N/A   Mostly Cloudy
7:35 AM 32.0 °F - 32.0 °F 100% 30.23 in 2.5 mi Calm Calm - N/A   Mostly Cloudy
7:37 AM 32.0 °F - 32.0 °F 100% 30.23 in 2.0 mi Calm Calm - N/A   Mostly Cloudy
7:41 AM 32.0 °F - 32.0 °F 100% 30.23 in 1.8 mi Calm Calm - N/A   Overcast
7:54 AM 33.8 °F - 33.8 °F 100% 30.23 in 2.0 mi Calm Calm - N/A   Mostly Cloudy
7:55 AM 33.4 °F - 33.4 °F 100% 30.23 in 2.0 mi Calm Calm - N/A   Mostly Cloudy
8:40 AM 39.2 °F - 37.4 °F 93% 30.22 in 2.5 mi Calm Calm - N/A   Partly Cloudy
8:52 AM 41.0 °F - 37.4 °F 87% 30.21 in 3.0 mi Calm Calm - N/A   Partly Cloudy
8:54 AM 41.0 °F - 37.4 °F 87% 30.21 in 2.5 mi Calm Calm - N/A   Haze
8:55 AM 41.4 °F - 37.0 °F 85% 30.21 in 3.0 mi Calm Calm - N/A   Haze
8:56 AM 41.0 °F - 37.4 °F 87% 30.21 in 2.5 mi Calm Calm - N/A   Haze
9:05 AM 42.8 °F - 37.4 °F 81% 30.21 in 3.0 mi Calm Calm - N/A   Haze
9:14 AM 44.6 °F - 37.4 °F 76% 30.20 in 2.5 mi Calm Calm - N/A   Haze
9:28 AM 46.4 °F - 37.4 °F 71% 30.20 in 3.0 mi Calm Calm - N/A   Haze
9:47 AM 50.0 °F - 39.2 °F 66% 30.19 in 2.5 mi Calm Calm - N/A   Haze
9:55 AM 50.7 °F - 39.0 °F 64% 30.19 in 2.5 mi Calm Calm - N/A   Haze
9:58 AM 51.8 °F - 39.2 °F 62% 30.19 in 2.0 mi Calm Calm - N/A   Haze
10:07 AM 53.6 °F - 39.2 °F 58% 30.18 in 3.0 mi Calm Calm - N/A   Haze
10:55 AM 61.0 °F - 37.4 °F 42% 30.17 in 10.0 mi SW 13.8 mph - N/A   Clear
11:55 AM 63.7 °F - 37.2 °F 38% 30.13 in 10.0 mi SSW 11.5 mph - N/A   Partly Cloudy
12:55 PM 66.6 °F - 36.0 °F 32% 30.08 in 10.0 mi SW 16.1 mph - N/A   Clear
1:55 PM 68.0 °F - 33.3 °F 28% 30.04 in 10.0 mi SSW 17.3 mph 25.3 mph N/A   Clear
2:55 PM 69.1 °F - 32.4 °F 26% 30.01 in 10.0 mi SSW 18.4 mph 24.2 mph N/A   Mostly Cloudy
3:55 PM 68.2 °F - 31.5 °F 26% 30.02 in 10.0 mi SW 12.7 mph - N/A   Mostly Cloudy
4:55 PM 65.1 °F - 32.5 °F 30% 30.02 in 10.0 mi SW 9.2 mph - N/A   Overcast
5:55 PM 63.1 °F - 32.2 °F 31% 30.02 in 10.0 mi South 8.1 mph - N/A   Clear
6:55 PM 61.3 °F - 32.4 °F 34% 30.04 in 10.0 mi WSW 4.6 mph - N/A   Clear
7:54 PM 62.6 °F - 32.0 °F 32% 30.06 in 10.0 mi WSW 5.8 mph - N/A   Light Drizzle
7:55 PM 61.9 °F - 32.5 °F 33% 30.06 in 10.0 mi WSW 5.8 mph - 0.00 in   Partly Cloudy
8:05 PM 62.6 °F - 33.8 °F 34% 30.07 in 10.0 mi Variable 4.6 mph - N/A Rain Light Rain
8:19 PM 62.6 °F - 37.4 °F 39% 30.07 in 10.0 mi NW 5.8 mph - N/A   Partly Cloudy
8:24 PM 62.6 °F - 37.4 °F 39% 30.07 in 10.0 mi NNW 5.8 mph - N/A   Light Drizzle
8:52 PM 60.8 °F - 39.2 °F 45% 30.07 in 8.0 mi Calm Calm - N/A   Clear
8:55 PM 60.3 °F - 39.4 °F 46% 30.07 in 7.0 mi Calm Calm - 0.00 in   Clear
9:49 PM 57.2 °F - 44.6 °F 63% 30.06 in 10.0 mi SSW 4.6 mph - N/A   Light Drizzle
9:55 PM 56.3 °F - 45.0 °F 66% 30.05 in 10.0 mi South 5.8 mph - 0.00 in   Light Drizzle
9:59 PM 57.2 °F - 44.6 °F 63% 30.05 in 10.0 mi South 5.8 mph - N/A   Partly Cloudy
10:55 PM 55.0 °F - 43.7 °F 66% 30.02 in 10.0 mi SW 6.9 mph - 0.00 in   Mostly Cloudy